Location: Evensen
(52.5775°N, 9.5258°E)
Time: 05:33:32
(UTC+00:00)

Cosmos 2082 Rocket - Pass Details

Date: 15 May 2026
Orbit: 832 x 852 km, 71.0° (Epoch: 6 June)

Event Time Altitude Azimuth Distance (km) Brightness Sun altitude
Rises 20:39:11 0° 229° (SW) 3,413 5.3 -10.5°
Reaches altitude 10° 20:41:43 10° 235° (SW) 2,480 4.7 -10.8°
Maximum altitude 20:47:14 49° 310° (NW) 1,087 3.3 -11.3°
Drops below altitude 10° 20:52:47 10° 25° (NNE) 2,487 5.1 -11.7°
Sets 20:55:20 0° 31° (NNE) 3,423 5.7 -12.0°
